Weather in Troitsky

Russia / Sverdlovsk Oblast     57°03′39″N   63°44′39″E
temp.,
°C
wind,
m/s
gust,
m/s
humid.,
%
clouds,
%
prec.,
mm/h
press.,
hPa
HPBL,
m
26 july, mon
mon2623:00+11nw386515 0.0 1016130
02:00+13nw2957100 0.0 1016335
05:00+9wnw38765 0.0 1017151
08:00+14wnw47565 0.0 1017551
11:00+18wnw5638100 0.0 10172457
14:00+18nw463870 0.0 10172310
17:00+17wnw364797 0.0 10161253
20:00+16w375470 0.0 1015250
27 july, tue
tue2723:00+14wsw395735 0.0 1015236
02:00+11wsw397177 0.0 1014190
05:00+9wsw37895 0.0 1014137
08:00+15wsw4863100 0.0 1012407
11:00+21wsw6842100 0.0 10102380
14:00+13w3994100 0.9 1011556
17:00+17w477316 1.4 10091007
20:00+15w2786100 0.6 1009221
28 july, wed
wed2823:00+11wnw39935 0.6 1009176
02:00+10wnw388188 0.0 1009212
05:00+6wnw38925 0.0 1010161
08:00+12wnw496441 0.0 1009648
11:00+16wnw5845100 0.0 10082007
14:00+15w475660 0.4 10081434
17:00+14nw58675 1.4 10091389
20:00+13nnw375437 0.1 1010664
29 july, thu
thu2923:00+9w0168100 0.1 101111
02:00+7w2477100 0.0 101067
05:00+6wsw2582100 0.0 1011109
08:00+10w3573100 0.1 1010274
11:00+11sw357474 0.5 1010455
14:00+16wsw356658 0.0 1009948
17:00+19wnw265444 0.2 10081447
20:00+16ssw1175100 0.3 100716
30 july, fri
fri3023:00+13s4995100 1.9 1007215
02:00+12sw3997100 0.1 1006201
05:00+12wsw31097100 0.1 1005243
08:00+15w358999 0.0 1006274
11:00+21wsw3561100 0.0 1006890
14:00+23wsw4567100 0.9 10061209
17:00+24sw455567 1.2 10051390
20:00+19sw2679100 0.1 1005159